Location: Mesa Vista Observatory
(35.5777°N, 105.6987°W)
Time: 21:56:29
(UTC-06:00)

OTV 5 (USA 277) - Visible Passes

Search period start: 15 June 2019 00:00
Search period end: 25 June 2019 00:00
Orbit: 310 x 325 km, 54.5° (Epoch: 08 May)

Date Brightness Start Highest point End Pass type
(mag) Time Alt. Az. Time Alt. Az. Time Alt. Az.
20 Jun ? 21:41:05 10° SSW 21:43:40 41° SE 21:46:17 10° ENE visible
20 Jun ? 23:17:00 10° WNW 23:18:10 12° NW 23:19:21 10° N visible
21 Jun ? 21:55:42 10° WSW 21:58:22 49° NW 22:01:03 10° NNE visible
22 Jun ? 04:19:29 10° N 04:20:51 13° NE 04:22:13 10° ENE visible
22 Jun ? 22:11:15 10° W 22:13:14 18° NW 22:15:13 10° N visible
23 Jun ? 04:33:17 10° NNW 04:35:47 31° NE 04:38:15 10° ESE visible
23 Jun ? 20:50:50 10° SW 20:53:33 84° SE 20:56:18 10° NE visible
24 Jun ? 04:47:49 10° NW 04:50:33 71° SW 04:53:14 10° SE visible
24 Jun ? 21:05:55 10° WSW 21:08:19 27° NW 21:10:46 10° NNE visible
